TimeCDT,TemperatureF,Dew PointF,Humidity,Sea Level PressureIn,VisibilityMPH,Wind Direction,Wind SpeedMPH,Gust SpeedMPH,PrecipitationIn,Events,Conditions,WindDirDegrees,DateUTC
12:15 AM,40.3,24.4,53,29.94,10.0,SSW,10.4,-,N/A,,Clear,200,2012-10-08 05:15:00
12:35 AM,40.5,24.8,54,29.92,10.0,SSW,9.2,-,N/A,,Clear,200,2012-10-08 05:35:00
12:55 AM,40.8,25.3,54,29.92,10.0,SSW,10.4,-,N/A,,Clear,200,2012-10-08 05:55:00
1:15 AM,41.7,26.1,54,29.92,10.0,SSW,11.5,-,N/A,,Clear,200,2012-10-08 06:15:00
1:35 AM,41.9,26.8,55,29.91,10.0,SSW,12.7,-,N/A,,Clear,200,2012-10-08 06:35:00
1:55 AM,42.3,27.3,56,29.91,10.0,SSW,12.7,19.6,N/A,,Clear,200,2012-10-08 06:55:00
2:15 AM,42.3,28.0,57,29.91,10.0,SSW,12.7,-,N/A,,Clear,210,2012-10-08 07:15:00
2:35 AM,42.4,28.4,58,29.91,10.0,SSW,13.8,-,N/A,,Clear,210,2012-10-08 07:35:00
2:55 AM,42.3,29.1,60,29.90,10.0,SSW,12.7,-,N/A,,Clear,210,2012-10-08 07:55:00
3:15 AM,41.9,29.3,61,29.89,10.0,SSW,10.4,-,N/A,,Clear,210,2012-10-08 08:15:00
3:35 AM,41.4,29.7,63,29.89,10.0,SSW,10.4,-,N/A,,Clear,200,2012-10-08 08:35:00
3:55 AM,41.0,29.8,64,29.89,10.0,Calm,Calm,-,N/A,,Clear,0,2012-10-08 08:55:00
4:15 AM,41.0,30.2,65,29.88,10.0,SSW,9.2,-,N/A,,Clear,200,2012-10-08 09:15:00
4:35 AM,41.2,30.6,66,29.88,10.0,SSW,8.1,-,N/A,,Clear,200,2012-10-08 09:35:00
4:55 AM,41.4,30.9,66,29.88,10.0,SSW,10.4,-,N/A,,Clear,210,2012-10-08 09:55:00
5:15 AM,41.2,31.1,67,29.88,10.0,SSW,9.2,-,N/A,,Clear,200,2012-10-08 10:15:00
5:35 AM,40.5,30.9,69,29.87,10.0,SSW,6.9,-,N/A,,Clear,200,2012-10-08 10:35:00
5:55 AM,40.8,31.1,68,29.88,10.0,South,9.2,-,N/A,,Clear,190,2012-10-08 10:55:00
6:15 AM,40.6,31.3,69,29.87,10.0,South,10.4,-,N/A,,Scattered Clouds,190,2012-10-08 11:15:00
6:35 AM,40.1,31.1,70,29.87,10.0,SSW,6.9,-,N/A,,Scattered Clouds,200,2012-10-08 11:35:00
6:55 AM,40.1,31.5,71,29.87,10.0,SSW,8.1,-,N/A,,Scattered Clouds,200,2012-10-08 11:55:00
7:15 AM,40.1,31.6,72,29.86,10.0,SSW,9.2,-,N/A,,Scattered Clouds,200,2012-10-08 12:15:00
7:35 AM,41.0,31.8,70,29.86,10.0,South,8.1,-,N/A,,Mostly Cloudy,190,2012-10-08 12:35:00
7:55 AM,42.1,32.0,67,29.86,10.0,SSW,8.1,-,N/A,,Mostly Cloudy,200,2012-10-08 12:55:00
8:15 AM,42.8,32.0,66,29.85,10.0,South,11.5,-,N/A,,Mostly Cloudy,190,2012-10-08 13:15:00
8:35 AM,43.7,32.0,63,29.84,10.0,SSW,11.5,16.1,N/A,,Overcast,200,2012-10-08 13:35:00
8:55 AM,44.6,32.0,61,29.84,10.0,SSW,11.5,-,N/A,,Mostly Cloudy,200,2012-10-08 13:55:00
9:15 AM,47.3,32.0,55,29.84,10.0,SSW,11.5,18.4,N/A,,Scattered Clouds,200,2012-10-08 14:15:00
9:35 AM,48.2,31.6,53,29.84,10.0,SSW,15.0,-,N/A,,Scattered Clouds,200,2012-10-08 14:35:00
9:55 AM,48.2,31.6,53,29.84,10.0,SSW,10.4,-,N/A,,Clear,210,2012-10-08 14:55:00
10:15 AM,50.7,31.6,48,29.84,10.0,SSW,15.0,-,N/A,,Clear,210,2012-10-08 15:15:00
10:35 AM,52.7,31.1,44,29.83,10.0,SSW,12.7,-,N/A,,Clear,210,2012-10-08 15:35:00
10:55 AM,55.0,30.2,39,29.82,10.0,SSW,16.1,-,N/A,,Clear,200,2012-10-08 15:55:00
11:15 AM,56.7,28.9,35,29.82,10.0,SSW,17.3,21.9,N/A,,Clear,200,2012-10-08 16:15:00
11:35 AM,57.7,28.9,33,29.81,10.0,SSW,19.6,23.0,N/A,,Clear,200,2012-10-08 16:35:00
11:55 AM,59.5,28.9,31,29.80,10.0,SSW,18.4,23.0,N/A,,Clear,210,2012-10-08 16:55:00
12:15 PM,61.7,28.9,29,29.78,10.0,SW,18.4,24.2,N/A,,Clear,220,2012-10-08 17:15:00
12:35 PM,64.0,27.7,25,29.77,10.0,SSW,21.9,28.8,N/A,,Clear,210,2012-10-08 17:35:00
12:55 PM,65.3,27.3,24,29.76,10.0,SSW,25.3,29.9,N/A,,Clear,210,2012-10-08 17:55:00
1:15 PM,66.4,27.0,23,29.75,10.0,SSW,21.9,29.9,N/A,,Clear,200,2012-10-08 18:15:00
1:35 PM,67.6,26.6,21,29.74,10.0,SSW,21.9,28.8,N/A,,Scattered Clouds,210,2012-10-08 18:35:00
1:55 PM,67.1,25.2,21,29.73,10.0,SW,21.9,29.9,N/A,,Clear,220,2012-10-08 18:55:00
2:15 PM,67.3,25.0,20,29.72,10.0,SW,24.2,27.6,N/A,,Scattered Clouds,220,2012-10-08 19:15:00
2:35 PM,71.6,23.0,16,29.71,10.0,SW,21.9,29.9,N/A,,Scattered Clouds,220,2012-10-08 19:35:00
2:55 PM,70.0,21.2,16,29.71,10.0,SW,20.7,34.5,N/A,,Scattered Clouds,220,2012-10-08 19:55:00
3:15 PM,69.3,21.6,16,29.71,10.0,SW,23.0,32.2,N/A,,Mostly Cloudy,230,2012-10-08 20:15:00
3:35 PM,70.3,20.8,15,29.71,10.0,SW,20.7,26.5,N/A,,Scattered Clouds,230,2012-10-08 20:35:00
3:55 PM,71.6,20.8,15,29.71,10.0,SW,24.2,33.4,N/A,,Clear,220,2012-10-08 20:55:00
4:15 PM,72.0,20.8,15,29.70,10.0,SW,20.7,28.8,N/A,,Clear,220,2012-10-08 21:15:00
4:35 PM,72.0,20.8,15,29.69,10.0,SW,20.7,31.1,N/A,,Clear,220,2012-10-08 21:35:00
4:55 PM,71.6,20.5,15,29.69,10.0,SW,20.7,26.5,N/A,,Clear,220,2012-10-08 21:55:00
5:15 PM,72.1,21.0,15,29.69,10.0,SW,16.1,24.2,N/A,,Clear,230,2012-10-08 22:15:00
5:35 PM,70.0,20.7,15,29.70,10.0,SW,17.3,23.0,N/A,,Scattered Clouds,230,2012-10-08 22:35:00
5:55 PM,69.4,21.6,16,29.71,10.0,WSW,11.5,-,N/A,,Scattered Clouds,240,2012-10-08 22:55:00
6:15 PM,68.9,23.2,18,29.71,10.0,WSW,9.2,17.3,N/A,,Mostly Cloudy,240,2012-10-08 23:15:00
6:35 PM,68.2,28.0,22,29.72,10.0,WSW,9.2,-,N/A,,Overcast,250,2012-10-08 23:35:00
6:55 PM,67.1,31.5,27,29.72,10.0,West,5.8,-,N/A,,Overcast,270,2012-10-08 23:55:00
7:35 PM,64.6,34.3,32,29.75,10.0,WSW,4.6,-,N/A,,Overcast,240,2012-10-09 00:35:00
7:55 PM,63.7,34.2,33,29.76,7.0,West,4.6,-,N/A,,Overcast,280,2012-10-09 00:55:00
8:15 PM,62.8,36.1,37,29.77,7.0,West,8.1,-,N/A,,Light Drizzle,280,2012-10-09 01:15:00
8:35 PM,62.4,38.7,41,29.78,7.0,West,3.5,-,N/A,,Light Drizzle,260,2012-10-09 01:35:00
8:55 PM,60.8,40.3,47,29.78,10.0,West,5.8,-,N/A,,Light Drizzle,260,2012-10-09 01:55:00
9:15 PM,58.6,43.3,57,29.81,7.0,NW,10.4,16.1,N/A,Rain,Light Rain,310,2012-10-09 02:15:00
9:35 PM,55.8,46.6,71,29.80,10.0,North,11.5,-,N/A,Rain,Rain,360,2012-10-09 02:35:00
9:55 PM,54.5,48.2,79,29.79,10.0,North,16.1,20.7,N/A,Rain,Light Rain,350,2012-10-09 02:55:00
10:15 PM,53.6,48.6,83,29.80,10.0,NNW,18.4,25.3,N/A,Rain,Rain,340,2012-10-09 03:15:00
10:55 PM,53.1,48.6,85,29.81,10.0,North,8.1,-,N/A,Rain,Light Rain,360,2012-10-09 03:55:00
11:35 PM,52.2,48.7,88,29.81,10.0,ENE,3.5,-,0.01,Rain,Light Rain,60,2012-10-09 04:35:00
11:55 PM,51.4,48.9,91,29.81,10.0,Calm,Calm,-,0.01,Rain,Rain,0,2012-10-09 04:55:00